Location: Bethera
(33.2010°N, 79.7880°W)
Time: 21:35:20
(UTC-05:00)

Daily predictions for brighter satellites

Satellite Brightness Start Highest point End
(mag) Time Altitude Azimuth Time Altitude Azimuth Time Altitude Azimuth
Meteor 1-25 Rocket 4.2 18:26:49 10° S 18:32:21 72° E 18:38:00 10° NNE
CENTAUR R/B 3.3 18:27:23 10° NNW 18:35:28 90° N 18:43:54 10° SSE
Cosmos 44 3.3 18:31:25 10° NNW 18:35:40 47° ENE 18:39:47 10° SE
Cosmos 1346 Rocket 3.5 18:34:05 10° NNW 18:37:57 59° W 18:41:46 10° S
Cosmos 1745 Rocket 4.2 18:31:53 10° S 18:38:14 85° W 18:44:33 10° N
Cosmos 2151 Rocket 3.7 18:36:24 10° S 18:40:45 53° E 18:45:10 10° NNE
NOAA 12 4.2 18:41:30 10° SSE 18:46:41 57° ENE 18:51:54 10° N
Meteor 1-11 Rocket 4.5 18:41:46 10° SSE 18:46:45 31° E 18:51:50 10° NNE
Okean 1 Rocket 4.3 18:44:18 10° SE 18:47:42 21° E 18:51:05 10° NE
Cosmos 1812 2.6 18:44:06 10° N 18:47:57 68° E 18:51:46 10° SSE
ATLAS CENTAUR R/B 3.9 18:45:18 10° SSE 18:48:28 14° SE 18:50:37 10° ESE
Cosmos 1386 Rocket 4.5 18:42:23 10° S 18:48:32 88° E 18:54:37 10° N
METEOR-M 4.2 18:44:47 10° SSE 18:50:01 61° ENE 18:55:17 10° N
Cosmos 1954 Rocket 4.1 18:46:18 10° S 18:51:16 50° ESE 18:56:18 10° NNE
GPS 2-04 Rocket1 4.1 18:49:29 10° SSW 18:53:11 28° SSE 18:56:15 14° E
Cosmos 2219 4.4 18:49:40 10° SSE 18:53:47 21° E 18:57:55 10° NE
GEOS 3 Rocket 3.6 18:50:54 10° NE 18:56:11 80° ESE 19:01:28 10° SSW
Abrixas rocket 4.1 18:57:26 10° SSE 18:59:26 15° SE 19:00:14 14° ESE
Cosmos 2360 Rocket 3.1 18:56:02 10° N 19:00:47 27° ENE 19:05:08 12° ESE
Cosmos 1980 Rocket 4.1 18:56:25 10° NW 19:01:29 34° WSW 19:06:33 10° SSW
SL-8 R/B 4.2 18:59:56 10° WNW 19:04:42 63° SW 19:09:27 10° SE
Helios 1B rocket 3.7 19:07:49 18° ENE 19:09:06 21° E 19:12:15 10° SSE
Cosmos 1602 3.7 19:05:45 10° S 19:09:30 55° E 19:13:18 10° NNE
Cosmos 1633 2.5 19:06:22 10° S 19:09:59 60° E 19:13:38 10° NNE
OAO 3 Copernicus 4.4 19:04:56 10° W 19:10:01 73° N 19:13:24 21° E
FREGAT/IRIS 2.7 19:12:08 10° S 19:15:11 81° W 19:18:16 10° NNW
ALOS 2.3 19:13:09 10° SSE 19:17:43 58° ENE 19:22:19 10° N
CZ-3C R/B 3.1 19:15:28 10° SW 19:17:45 12° SSW 19:19:17 10° S
Cosmos 1833 4.2 19:13:23 10° SSW 19:19:07 87° WNW 19:24:49 10° NNE
NOSS 8 (F) 4.4 19:15:39 10° SSW 19:19:17 75° ESE 19:21:42 19° NE
H-2A R/B 4.2 19:18:36 10° SSE 19:20:30 13° SE 19:20:30 13° SE
Cosmos 1536 Rocket 3.7 19:23:00 10° N 19:27:28 76° W 19:31:55 10° S
ASTRO E2 3.9 19:25:46 10° W 19:29:26 34° SSW 19:31:26 21° SSE
SJ-6B 3.5 19:27:22 10° S 19:31:21 56° W 19:35:17 10° NNW
Cosmos 1741 Rocket 4.0 19:26:29 10° S 19:31:34 54° ESE 19:36:39 10° NNE
FengYun 1-2 T 4.1 19:27:52 10° SSE 19:33:20 80° ENE 19:38:49 10° N
SL-16 R/B 2.9 19:29:16 10° NNW 19:34:46 54° WSW 19:40:16 10° S
Resurs 01 Rocket 1.5 19:32:49 10° SSE 19:37:12 73° ENE 19:41:36 10° N
DNEPR-1 R/B 4.0 19:34:01 10° NW 19:38:09 59° WSW 19:42:28 10° SSE
Gbstr 26 Del rocket 3.3 19:38:50 10° WSW 19:42:35 52° NW 19:43:57 33° NNE
Cosmos 1340 3.0 19:39:45 10° NNW 19:43:31 63° W 19:47:13 10° S
Cosmos 1238 Rocket 2.4 19:41:53 10° NNW 19:44:49 63° W 19:45:29 45° SSW
Meteor 1-19 Rocket 4.1 19:39:13 10° N 19:44:55 84° E 19:50:42 10° S
Cosmos 2327 Rocket 4.5 19:39:24 10° S 19:45:25 58° E 19:51:34 10° NNE
Meteor 1-5 Rocket 4.3 19:41:10 10° S 19:46:58 56° E 19:52:47 10° NNE
DELTA 2 R/B (1) 3.8 19:41:33 10° WNW 19:47:05 58° NNE 19:48:38 43° ENE
Cosmos 1570 Rocket 4.4 19:44:16 10° N 19:48:44 40° NE 19:48:44 40° NE
Cosmos 2181 Rocket 4.2 19:44:18 10° N 19:50:33 76° W 19:56:52 10° S
Hubble Space Telescope 2.9 19:48:07 10° SSW 19:49:46 15° S 19:49:46 15° S
Cosmos 2322 Rocket 3.7 19:47:31 10° NW 19:52:34 35° WSW 19:57:35 10° SSW
Tiangong 2 2.6 19:52:45 10° NW 19:54:34 31° NW 19:54:34 31° NW
Cosmos 1536 3.1 19:52:46 10° SSW 19:56:44 65° W 20:00:42 10° N
Resurs 1-3 3.7 19:55:32 10° S 19:59:54 72° WSW 20:04:17 10° NNW
Delta R/B 4.4 19:49:40 10° WSW 20:00:07 43° S 20:00:42 40° SSE
CZ-2D R/B 4.1 20:03:05 42° NNW 20:03:05 42° NNW 20:05:41 10° NNW
FENGYUN 3A 4.5 19:57:52 10° S 20:03:05 51° W 20:08:22 10° NNW
Cosmos 2074 Rocket 3.9 19:58:21 10° S 20:04:35 89° W 20:10:53 10° N
Cosmos 2184 Rocket 3.9 19:58:56 10° S 20:05:17 89° ESE 20:11:36 10° N
Cosmos 2322 3.6 19:59:48 10° NNW 20:05:33 88° ENE 20:07:31 43° SSE
H-2A R/B 3.9 20:10:08 33° SW 20:11:10 41° W 20:14:42 10° NNW
Meteor 1-23 Rocket 4.1 20:05:30 10° N 20:11:20 82° E 20:12:58 49° SSE
Spot 2 Rocket 4.3 20:08:22 10° S 20:13:13 49° W 20:18:08 10° NNW
Cosmos 2208 Rocket 4.3 20:08:07 10° N 20:12:31 54° NNE 20:12:31 54° NNE
COSMOS 2428 3.3 20:13:00 10° NNW 20:16:59 42° NNE 20:16:59 42° NNE
Meteor 2-4 Rocket 3.9 20:13:31 10° NNW 20:18:59 67° W 20:22:38 21° S
Cosmos 2237 4.2 20:13:26 10° NNW 20:18:32 67° NNE 20:18:32 67° NNE
Helios 1A 4.5 20:21:30 30° NNW 20:21:30 30° NNW 20:23:42 10° NNW
USA 229 DEB 4.4 20:26:53 10° NNW 20:32:15 42° NNE 20:32:15 42° NNE
USA 229 4.4 20:26:59 10° NNW 20:32:20 42° NNE 20:32:20 42° NNE
Cosmos 2219 4.2 20:32:04 10° SW 20:37:31 44° WNW 20:41:01 21° N
Cosmos 2360 Rocket 3.6 20:39:42 10° NW 20:44:45 34° WSW 20:47:02 25° SW
Cosmos 2219 Rocket 4.2 20:42:41 10° N 20:44:08 18° N 20:44:08 18° N
ATLAS 2A CENTAUR R/B 4.1 21:05:03 10° WSW 21:07:24 27° SW 21:07:24 27° SW
